Location: Ottawa
(45.4170°N, 75.7000°W)
Time: 07:19:41
(UTC-05:00)

ISS - Pass Details

Date: 15 February 2026
Orbit: 416 x 427 km, 51.6° (Epoch: 6 March)

Event Time Altitude Azimuth Distance (km) Brightness Sun altitude
Exits shadow 05:47:14 20° 230° (SW) 1,044 -2.2 -14.1°
Maximum altitude 05:49:26 73° 148° (SSE) 440 -3.6 -13.7°
Drops below altitude 10° 05:52:47 10° 64° (ENE) 1,494 0.0 -13.1°
Sets 05:54:53 0° 62° (ENE) 2,359 1.1 -12.8°
